Regional Weather Roundup
Issued by NWS Jackson, KY

Home | Current Version | Previous Version | Text Only | Print | Product List | Glossary Off
Versions: 1 2 3 4 5 6 7 8 9 10 11 12 13 14 15 16 17 18 19 20 21 22 23 24 25 26 27 28 29 30 31 32 33 34 35 36 37 38 39 40 41 42 43 44 45 46 47 48 49 50

000
ASUS43 KJKL 280510
RWRJKL

EAST KENTUCKY HOURLY WEATHER ROUNDUP
NATIONAL WEATHER SERVICE JACKSON KY
100 AM EDT WED JUN 28 2017

NOTE: "FAIR" INDICATES FEW OR NO CLOUDS BELOW 12,000 FEET WITH
NO SIGNIFICANT WEATHER AND/OR OBSTRUCTIONS TO VISIBILITY.

* THESE REPORTS ARE NOT UNDER NWS QUALITY CONTROL AND MAY NOT
  REPORT WEATHER SUCH AS PRECIPITATION AND FOG.

KYZ079-080-083-085-087-088-110-112-115-119-120-280600
...EASTERN KENTUCKY...

CITY           SKY/WX    TMP DP  RH WIND       PRES   REMARKS
JACKSON        CLEAR     62  48  60 SE3       30.16R
LONDON         CLEAR     57  53  86 CALM      30.16R
SOMERSET*      CLEAR     54  54 100 CALM      30.17R
MONTICELLO*    CLEAR     54  52  93 CALM      30.17S
WILLIAMSBURG*  CLEAR     54  54 100 CALM      30.17R
MIDDLESBORO*   CLEAR     55  54  96 CALM      30.18S
HARLAN APT*    CLEAR     54  52  94 CALM      30.18S
PIKE CO APT*     N/A     60  49  66 SE3       30.16S
BIG SANDY APT* CLEAR     58  54  86 CALM      30.16S
MOREHEAD APT*  CLEAR     55  52  88 S3        30.17R
ASHLAND*       CLEAR     55  54  94 CALM      30.13R
$$

KYZ035-036-041-042-044-050-067-078-099-280600
...CENTRAL KENTUCKY...

CITY           SKY/WX    TMP DP  RH WIND       PRES   REMARKS
MT STERLING*   CLEAR     54  54 100 CALM      30.18R
FLEMING/MASON* CLEAR     57  52  83 CALM      30.17R
DANVILLE*      CLEAR     54  50  87 CALM      30.16S
LEXINGTON      CLEAR     57  49  74 CALM      30.15R
FRANKFORT      CLEAR     57  51  80 CALM      30.13R
LOUISVILLE     CLEAR     68  50  52 E3        30.13R
LEBANON*         N/A     61  50  67 SE5       30.15R
GLASGOW*       CLEAR     58  58 100 CALM      30.13S
BOWLING GREEN  CLEAR     61  57  87 CALM      30.12R
$$

KYZ091>093-OHZ055-061-077-WVZ005-015-034-035-042-280600
...SOUTHERN OHIO/WEST VIRGINIA...

CITY           SKY/WX    TMP DP  RH WIND       PRES   REMARKS
COVINGTON      CLEAR     58  52  80 CALM      30.14R
COLUMBUS       CLEAR     56  51  84 CALM      30.13R
DAYTON         CLEAR     59  46  62 CALM      30.15R
WILMINGTON     CLEAR     55  53  93 CALM      30.14R
HUNTINGTON     CLEAR     56  52  86 CALM      30.14S
CHARLESTON     CLEAR     56  52  86 CALM      30.15S
PINEVILLE*     CLEAR     51  49  95 MISG      30.23S
BECKLEY        CLEAR     52  46  80 CALM      30.19S
BLUEFIELD      CLEAR     55  43  63 SW3       30.21R
LOGAN CO APT*    N/A     59  50  72 CALM      30.17R
$$

VAZ002-007-008-TNZ017-027-036-066-071-280600
...SOUTHWEST VIRGINIA/EAST TENNESSEE...

CITY           SKY/WX    TMP DP  RH WIND       PRES   REMARKS
WISE*          CLEAR     55  45  67 CALM      30.22S
JONESVILLE*      N/A     54  50  87 CALM      30.19
ABINGDON*      CLEAR     56  51  83 CALM      30.19R
BRISTOL        CLEAR     56  51  84 CALM      30.17R
MORRISTOWN*    CLEAR     59  54  82 CALM      30.15S
SEVIERVILLE*   CLEAR     55  52  88 CALM      30.14F
KNOXVILLE      CLEAR     61  54  77 NE6       30.13S
LAFOLLETTE*      N/A     55  55 100 CALM      30.19S
OAK RIDGE      CLEAR     60  55  83 CALM      30.16S
CROSSVILLE     CLEAR     55  52  89 CALM      30.17F
NASHVILLE      CLEAR     67  59  75 S3        30.12R
$$

...KEY TO REMARKS...
VSB - VISIBILITY IN MILES
WCI - WIND CHILL INDEX
HX  - HEAT INDEX

$$



USA.gov is the U.S. government's official web portal to all federal, state and local government web resources and services.